Weather History for Zapata, TX

Change the Weather History Date:

Saturday, January 11, 2014

  Actual Average (KLRD) Record (KLRD)
Temperature  
Mean Temperature 63 °F 56 °F  
Max Temperature 82 °F 66 °F 90 °F (1907)
Min Temperature 44 °F 46 °F 16 °F (1918)
Degree Days  
Heating Degree Days 2 10  
Month to date heating degree days 110  
Since 1 July heating degree days 500  
Cooling Degree Days 0 1  
Month to date cooling degree days 11  
Year to date cooling degree days 11  
Growing Degree Days 13 (Base 50)    
Moisture  
Dew Point 37 °F    
Average Humidity 54    
Maximum Humidity 96    
Minimum Humidity 9    
Precipitation  
Precipitation 0.00 in 0.02 in 0.74 in (1934)
Month to date precipitation 0.32  
Year to date precipitation 0.32  
Sea Level Pressure  
Sea Level Pressure 30.05 in    
Wind  
Wind Speed 3 mph (NNE)    
Max Wind Speed 14 mph    
Max Gust Speed 23 mph    
Visibility 8 miles    
Events      
T = Trace of Precipitation, MM = Missing Value Source: NWS Daily Summary

Daily Weather History Graph

Daily Weather History Graph

Search for Another Location

Airport:

Trip Planner

Search our weather history database for the weather conditions in past years. The results will help you decide how hot, cold, wet, or windy it might be!

Date:

Astronomy

Jan. 11, 2014 Rise Set
Actual Time 7:27 AM CST 6:02 PM CST
Civil Twilight 7:02 AM CST 6:27 PM CST
Nautical Twilight 6:33 AM CST 6:56 PM CST
Astronomical Twilight 6:05 AM CST 7:24 PM CST
Moon 2:44 PM CST (1/11) 3:38 AM CST (1/11)
Length of Visible Light 11h 25m
Length of Day
10h 34m
Waxing Gibbous, 83% of the Moon is Illuminated
Jan 11
Waxing Gibbous
Jan 15
Full
Jan 23
Last Quarter
Jan 30
New
Feb 6
First Quarter

Hourly Weather History & Observations

Time (CST) Temp. Windchill Dew Point Humidity Pressure Visibility Wind Dir Wind Speed Gust Speed Precip Events Conditions
12:15 AM 55.0 °F - 52.5 °F 91% 29.92 in 7.0 mi Calm Calm - N/A   Clear
12:35 AM 53.6 °F - 51.3 °F 92% 29.92 in 7.0 mi Calm Calm - N/A   Clear
12:55 AM 54.5 °F - 52.7 °F 94% 29.92 in 7.0 mi Calm Calm - N/A   Clear
1:15 AM 54.5 °F - 52.0 °F 91% 29.92 in 7.0 mi Calm Calm - N/A   Clear
1:35 AM 54.0 °F - 51.8 °F 92% 29.92 in 7.0 mi Calm Calm - N/A   Clear
1:55 AM 52.5 °F - 50.7 °F 94% 29.92 in 5.0 mi Calm Calm - N/A   Clear
2:15 AM 52.0 °F - 50.4 °F 94% 29.92 in 5.0 mi Calm Calm - N/A   Clear
2:35 AM 50.9 °F - 49.1 °F 94% 29.92 in 5.0 mi Calm Calm - N/A   Clear
2:55 AM 49.3 °F - 47.7 °F 94% 29.91 in 4.0 mi Calm Calm - N/A   Clear
3:15 AM 50.2 °F - 48.7 °F 95% 29.92 in 4.0 mi Calm Calm - N/A   Clear
3:35 AM 48.9 °F - 47.3 °F 94% 29.92 in 5.0 mi Calm Calm - N/A   Clear
3:55 AM 50.2 °F - 48.9 °F 95% 29.93 in 4.0 mi Calm Calm - N/A   Clear
4:15 AM 49.1 °F - 47.5 °F 94% 29.94 in 4.0 mi Calm Calm - N/A   Clear
4:35 AM 47.1 °F - 45.7 °F 95% 29.95 in 3.0 mi Calm Calm - N/A   Clear
4:55 AM 47.8 °F - 46.4 °F 95% 29.95 in 4.0 mi Calm Calm - N/A   Clear
5:15 AM 47.3 °F - 45.9 °F 95% 29.96 in 4.0 mi Calm Calm - N/A   Clear
5:35 AM 47.1 °F - 45.7 °F 95% 29.97 in 4.0 mi Calm Calm - N/A   Clear
5:55 AM 45.9 °F - 44.6 °F 95% 29.99 in 5.0 mi Calm Calm - N/A   Clear
6:15 AM 46.4 °F - 45.0 °F 95% 29.99 in 5.0 mi Calm Calm - N/A   Clear
6:35 AM 46.0 °F 44.8 °F 44.6 °F 95% 30.01 in 3.0 mi NNW 3.5 mph - N/A   Clear
6:55 AM 45.3 °F - 43.9 °F 95% 30.02 in 1.8 mi Calm Calm - N/A   Mist
7:15 AM 47.3 °F - 46.0 °F 95% 30.02 in 1.0 mi North 3.5 mph - N/A   Mist
7:35 AM 44.6 °F 43.1 °F 43.0 °F 94% 30.04 in 1.2 mi North 3.5 mph - N/A   Mist
7:55 AM 46.8 °F - 45.5 °F 95% 30.05 in 1.8 mi Calm Calm - N/A   Mist
8:15 AM 50.5 °F - 49.3 °F 95% 30.07 in 2.0 mi Calm Calm - N/A   Clear
8:35 AM 53.6 °F - 52.2 °F 95% 30.08 in 3.0 mi Calm Calm - N/A   Clear
8:55 AM 56.5 °F - 55.2 °F 96% 30.11 in 4.0 mi NNW 6.9 mph - N/A   Clear
9:15 AM 62.4 °F - 51.3 °F 67% 30.12 in 10.0 mi NNW 8.1 mph - N/A   Clear
9:35 AM 64.0 °F - 49.6 °F 59% 30.13 in 10.0 mi NNW 8.1 mph - N/A   Clear
9:55 AM 67.6 °F - 46.6 °F 47% 30.14 in 10.0 mi North 8.1 mph - N/A   Clear
10:15 AM 71.1 °F - 43.2 °F 37% 30.14 in 10.0 mi North 10.4 mph - N/A   Clear
10:35 AM 73.2 °F - 37.6 °F 27% 30.14 in 10.0 mi North 10.4 mph - N/A   Clear
10:55 AM 75.7 °F - 32.9 °F 21% 30.14 in 10.0 mi North 10.4 mph - N/A   Clear
11:15 AM 77.2 °F - 32.4 °F 20% 30.14 in 10.0 mi NNW 10.4 mph - N/A   Clear
11:35 AM 77.9 °F - 29.1 °F 17% 30.13 in 10.0 mi NNW 8.1 mph - N/A   Clear
11:55 AM 78.1 °F - 25.3 °F 14% 30.12 in 10.0 mi North 12.7 mph 17.3 mph N/A   Clear
12:15 PM 78.1 °F - 27.7 °F 16% 30.12 in 10.0 mi North 9.2 mph - N/A   Clear
12:35 PM 79.2 °F - 25.0 °F 14% 30.10 in 10.0 mi North 12.7 mph 17.3 mph N/A   Clear
12:55 PM 80.1 °F - 25.3 °F 13% 30.09 in 10.0 mi North 10.4 mph 18.4 mph N/A   Clear
1:15 PM 81.3 °F - 24.4 °F 12% 30.08 in 10.0 mi North 13.8 mph 23.0 mph N/A   Clear
1:35 PM 81.3 °F - 23.2 °F 12% 30.07 in 10.0 mi North 9.2 mph 17.3 mph N/A   Clear
1:55 PM 81.7 °F - 19.9 °F 10% 30.06 in 10.0 mi North 9.2 mph - N/A   Clear
2:15 PM 81.9 °F - 21.7 °F 11% 30.06 in 10.0 mi North 9.2 mph - N/A   Clear
2:35 PM 81.5 °F - 21.9 °F 11% 30.05 in 10.0 mi North 5.8 mph 16.1 mph N/A   Clear
2:55 PM 82.2 °F - 22.6 °F 11% 30.05 in 10.0 mi North 6.9 mph - N/A   Clear
3:15 PM 82.2 °F - 19.8 °F 10% 30.05 in 10.0 mi North 9.2 mph - N/A   Clear
3:35 PM 82.4 °F - 18.3 °F 9% 30.05 in 10.0 mi North 4.6 mph 9.2 mph N/A   Clear
3:55 PM 82.6 °F - 20.5 °F 10% 30.04 in 10.0 mi NNE 4.6 mph - N/A   Clear
4:15 PM 82.0 °F - 19.6 °F 10% 30.05 in 10.0 mi NE 3.5 mph - N/A   Clear
4:35 PM 81.5 °F - 16.7 °F 9% 30.05 in 10.0 mi NW 5.8 mph - N/A   Clear
4:55 PM 81.0 °F - 16.9 °F 9% 30.06 in 10.0 mi Calm Calm - N/A   Clear
5:15 PM 80.2 °F - 16.7 °F 9% 30.06 in 10.0 mi Calm Calm - N/A   Clear
5:35 PM 79.2 °F - 18.7 °F 10% 30.06 in 10.0 mi Calm Calm - N/A   Clear
5:55 PM 75.9 °F - 20.5 °F 13% 30.06 in 10.0 mi Calm Calm - N/A   Clear
6:15 PM 71.1 °F - 25.9 °F 18% 30.07 in 10.0 mi Calm Calm - N/A   Clear
6:35 PM 66.0 °F - 30.9 °F 27% 30.07 in 10.0 mi Calm Calm - N/A   Clear
6:55 PM 62.8 °F - 32.5 °F 32% 30.07 in 10.0 mi Calm Calm - N/A   Clear
7:15 PM 57.2 °F - 35.8 °F 45% 30.08 in 10.0 mi Calm Calm - N/A   Clear
7:35 PM 56.3 °F - 36.9 °F 48% 30.09 in 10.0 mi Calm Calm - N/A   Clear
7:55 PM 55.0 °F - 37.2 °F 51% 30.09 in 10.0 mi Calm Calm - N/A   Clear
8:15 PM 54.7 °F - 37.0 °F 51% 30.10 in 10.0 mi Calm Calm - N/A   Clear
8:35 PM 53.4 °F - 36.1 °F 52% 30.10 in 10.0 mi Calm Calm - N/A   Clear
8:55 PM 51.8 °F - 36.7 °F 56% 30.12 in 10.0 mi East 9.2 mph - N/A   Clear
9:15 PM 58.5 °F - 38.5 °F 47% 30.12 in 10.0 mi SE 5.8 mph - N/A   Clear
9:35 PM 57.4 °F - 38.7 °F 50% 30.13 in 10.0 mi ESE 4.6 mph - N/A   Clear
9:55 PM 57.4 °F - 41.0 °F 54% 30.13 in 10.0 mi ESE 4.6 mph - N/A   Clear
10:15 PM 57.6 °F - 40.5 °F 53% 30.14 in 10.0 mi SE 3.5 mph - N/A   Clear
10:35 PM 57.0 °F - 40.1 °F 53% 30.14 in 10.0 mi SE 4.6 mph - N/A   Clear
10:55 PM 56.5 °F - 39.6 °F 53% 30.13 in 10.0 mi ESE 6.9 mph - N/A   Clear
11:15 PM 57.0 °F - 38.3 °F 50% 30.13 in 10.0 mi SE 4.6 mph - N/A   Clear
11:35 PM 55.9 °F - 37.9 °F 51% 30.12 in 10.0 mi East 3.5 mph - N/A   Clear
11:55 PM 55.2 °F - 37.6 °F 52% 30.12 in 10.0 mi Calm Calm - N/A   Clear